Wind_Speed
13 13 13 13 13 12 11 10 10 9 9 10 10 11 12 12 13 14 15 16 17 18 19 19 20 20 21 21 21 22 22 22 23 23 25 25 25 25 27 26 26 26 27
14 14 14 14 13 13 12 11 11 11 11 11 11 12 12 13 14 15 16 17 18 19 20 20 21 22 22 22 22 23 24 24 24 25 26 26 27 28 28 28 27 27 28
14 14 14 15 15 14 13 13 13 12 12 11 11 11 12 13 14 16 16 17 18 19 20 21 22 22 23 23 24 24 25 25 25 25 26 27 27 28 28 28 28 28 28
15 16 16 16 16 16 16 15 14 14 14 13 13 12 13 14 15 16 16 17 19 19 20 21 21 22 23 23 24 25 26 26 26 26 27 27 27 28 28 28 29 29 29
16 17 17 17 17 18 17 17 16 16 16 16 16 15 16 16 16 17 17 18 19 20 20 21 22 22 23 23 24 24 26 26 27 28 28 27 28 29 29 29 29 29 30
17 17 18 18 18 18 18 18 19 18 17 17 17 18 18 18 18 18 19 19 20 21 22 22 23 24 24 25 25 26 27 27 28 28 28 29 29 30 30 30 31 31 31
18 18 19 19 19 20 20 20 20 20 19 18 19 19 19 19 19 20 20 21 22 22 22 22 23 23 25 26 26 27 27 28 29 28 29 30 30 30 31 32 32 33 33
21 21 21 21 21 21 21 21 21 20 19 19 19 19 19 19 19 20 21 21 22 22 23 24 24 24 25 26 27 28 29 29 30 30 30 31 31 31 32 33 33 33 34
23 23 23 23 24 23 22 23 22 21 21 21 21 20 20 20 20 21 22 22 23 24 25 26 26 27 27 28 28 28 29 30 31 32 32 32 33 33 33 34 33 34 34
25 25 25 25 25 25 25 25 25 24 23 23 23 23 22 22 23 23 23 24 25 26 26 27 27 28 28 29 29 29 30 31 32 32 32 33 33 33 33 34 34 35 35
27 28 28 28 28 27 27 27 27 26 25 25 25 25 25 25 25 25 25 25 26 27 27 28 29 29 29 30 31 31 31 32 33 33 33 33 33 34 34 35 35 35 36
30 31 30 31 31 31 30 29 28 28 27 27 27 27 27 27 27 27 27 27 27 28 28 28 29 30 30 31 32 33 33 33 34 34 34 34 34 35 36 36 36 36 36
34 34 34 34 34 34 33 32 29 28 29 29 29 29 29 29 30 30 30 30 30 30 30 31 31 32 32 33 33 34 34 34 35 35 35 35 36 36 37 37 37 37 37
37 37 37 36 35 35 35 33 31 30 31 31 31 31 31 32 32 32 32 32 32 32 32 32 33 33 33 34 34 35 35 36 36 37 37 37 37 37 37 37 37 37 38
40 39 38 37 36 35 34 33 32 32 33 33 32 33 33 34 34 35 35 34 34 34 34 34 34 34 35 36 36 37 37 37 37 38 38 38 38 38 38 38 38 38 38
41 40 39 38 37 36 34 34 34 34 35 35 35 36 36 36 36 35 36 36 35 35 35 36 36 36 36 37 37 38 38 38 38 38 38 37 38 38 38 38 38 38 38
41 39 39 38 37 36 34 35 35 35 36 37 37 38 38 38 37 37 37 37 36 36 36 36 36 36 36 36 36 36 37 37 37 38 38 38 38 38 38 39 39 38 38
41 39 39 37 36 35 35 35 36 36 37 38 38 38 38 38 38 38 38 37 36 36 36 37 37 37 37 36 36 36 37 37 37 38 38 38 38 38 38 38 38 38 38
41 40 39 38 37 38 37 37 37 38 38 39 39 39 39 39 39 38 38 37 36 36 36 36 37 37 37 37 37 37 37 38 38 38 38 38 38 38 37 37 37 37 37
39 39 38 38 37 38 38 38 38 38 38 39 39 39 39 39 39 38 38 37 36 36 37 37 37 37 37 37 37 37 37 37 38 38 38 38 38 38 37 36 36 36 37
38 38 38 38 39 38 38 39 39 39 39 38 38 38 38 38 38 38 38 37 38 38 38 38 38 38 38 38 38 37 37 38 38 38 37 37 37 37 37 37 37 36 36
39 38 38 39 38 39 39 39 39 39 39 39 38 38 38 38 37 38 38 38 38 39 38 38 38 38 38 38 37 37 38 38 38 37 37 37 37 37 37 37 36 36 36
38 37 37 37 38 38 38 38 38 38 38 38 38 37 37 37 38 38 38 38 38 38 38 38 38 38 37 37 37 37 37 37 37 37 37 36 36 36 36 35 35 35 34
36 36 37 37 37 37 37 37 37 38 38 37 37 37 37 37 38 37 37 37 37 37 38 38 38 38 38 37 37 37 37 36 36 36 35 35 34 34 34 33 33 32 32
35 35 35 35 35 35 36 36 37 37 36 36 36 36 36 36 37 37 37 37 37 37 37 37 36 36 36 36 36 36 35 35 34 34 33 33 32 32 32 32 32 32 31
32 32 33 33 33 34 35 35 34 34 34 34 34 34 34 35 36 36 36 36 36 36 36 35 35 35 35 35 34 34 34 34 33 33 32 32 32 32 32 32 32 32 32
Wind_Direction
342 343 343 341 339 336 332 326 319 318 310 300 283 275 272 270 270 270 269 268 267 265 265 267 269 271 272 272 273 274 275 276 276 275 277 279 281 282 281 282 282 283 284
342 340 339 340 339 335 332 328 321 314 311 305 296 288 282 279 275 274 274 271 269 269 269 270 271 272 274 274 273 273 275 278 279 277 277 279 280 282 280 280 281 282 283
341 338 336 337 336 332 328 326 322 317 312 309 303 296 288 284 279 276 273 270 270 271 272 273 273 272 273 274 274 275 277 279 280 279 279 281 282 283 282 282 282 282 283
338 335 334 333 333 332 329 326 322 316 312 305 301 297 293 291 286 282 277 273 272 273 275 276 276 275 275 276 276 276 277 278 280 280 280 281 282 282 282 283 283 282 282
334 333 332 330 330 329 327 324 321 316 312 308 301 299 296 292 289 286 281 279 276 275 277 278 279 278 277 278 278 278 278 279 281 281 280 280 282 282 283 284 284 284 283
327 328 329 326 324 325 325 322 318 314 309 306 303 299 297 295 291 288 283 282 281 279 279 280 278 276 277 277 278 278 279 280 280 281 281 282 282 283 284 284 283 284 284
318 320 320 322 320 319 320 318 317 315 310 308 305 303 300 297 294 291 287 285 285 283 283 284 282 282 280 278 279 279 280 280 280 281 282 282 282 283 284 285 284 284 284
311 312 313 316 316 314 314 314 314 314 315 313 308 301 300 298 297 294 290 290 288 286 285 284 283 283 282 281 281 281 282 281 281 282 282 283 284 285 285 285 285 285 285
304 306 308 310 312 310 309 309 309 309 310 311 310 308 304 302 300 297 293 291 290 288 287 286 285 284 284 284 284 283 282 282 281 282 283 284 285 285 285 286 286 286 286
300 302 304 304 306 307 306 305 303 304 305 307 307 307 305 302 300 298 297 294 293 291 290 288 287 286 286 286 286 286 285 284 284 285 285 285 285 286 286 286 285 286 286
295 297 298 299 300 301 301 301 299 299 299 300 301 302 302 300 299 298 296 294 293 292 291 290 289 288 287 287 288 287 287 286 286 286 286 286 286 287 286 286 286 286 286
293 293 293 296 297 297 297 298 297 296 296 297 297 299 299 298 298 298 297 295 294 294 292 291 290 289 288 287 288 288 287 287 287 287 287 287 287 286 285 285 285 285 286
292 292 293 293 295 295 293 293 293 294 294 295 296 298 297 297 296 296 296 295 295 294 292 291 290 289 288 289 288 288 288 288 288 288 288 287 287 287 286 286 285 285 285
289 290 291 292 293 293 291 290 291 292 293 292 294 295 296 297 296 295 294 293 293 292 291 291 290 289 289 288 287 288 288 288 288 288 288 287 287 287 286 286 285 285 285
288 290 292 291 295 295 293 291 291 293 293 291 292 293 294 295 295 294 292 291 292 291 290 290 290 290 289 289 288 288 288 288 288 288 288 287 287 287 286 286 285 285 286
288 290 291 291 291 293 292 291 291 292 292 291 293 294 294 294 293 293 293 291 291 292 291 290 290 290 289 289 288 288 288 288 287 288 288 288 288 288 288 287 286 286 287
287 289 291 291 290 290 291 291 290 291 291 291 292 293 294 293 292 292 291 291 291 291 291 291 290 291 290 290 289 288 288 288 288 288 288 288 288 288 288 287 285 285 285
286 287 289 289 290 289 291 291 290 291 291 290 290 292 292 291 291 291 291 290 290 290 290 290 290 290 290 290 290 289 289 289 288 288 288 288 289 289 288 287 286 284 285
284 285 287 288 288 289 290 290 291 291 290 290 289 290 290 290 290 290 290 290 290 289 289 289 290 290 290 290 290 290 290 289 289 289 288 288 288 288 288 287 286 286 286
282 284 285 286 286 287 288 289 290 290 290 290 290 290 290 290 290 290 290 290 290 291 291 290 290 289 289 289 289 289 290 290 290 290 289 288 288 288 288 287 286 285 285
282 283 284 285 285 286 287 288 289 290 290 289 290 290 291 290 290 290 290 290 290 290 290 290 290 290 289 288 288 289 289 290 291 291 290 289 289 289 288 288 287 286 286
281 283 283 284 285 285 286 287 287 288 288 288 289 289 289 289 289 289 289 288 289 290 290 291 291 290 289 289 289 289 290 290 291 291 290 290 289 289 288 288 287 287 286
281 282 283 284 285 285 286 285 286 287 287 288 289 289 289 289 289 288 287 288 289 289 290 290 289 289 289 289 289 290 290 290 290 290 290 290 289 288 288 288 287 287 287
281 282 283 284 285 285 285 285 285 286 287 287 288 288 288 288 288 288 287 288 288 288 289 290 290 289 289 290 290 290 289 290 290 290 290 290 290 289 289 289 288 288 288
281 282 283 283 284 284 285 285 286 286 286 287 287 288 288 289 289 289 289 289 289 289 290 291 291 290 289 289 289 290 290 290 290 290 290 290 290 290 290 290 289 289 288
281 281 282 283 284 285 286 286 287 288 287 288 288 288 289 290 290 291 290 290 290 291 291 290 290 289 290 290 290 290 290 290 290 290 290 290 290 290 289 289 288 288 287
Height
5895 5893 5891 5889 5887 5886 5884 5882 5881 5879 5878 5877 5877 5876 5875 5875 5875 5875 5875 5875 5875 5875 5875 5875 5875 5875 5875 5874 5874 5873 5873 5872 5872 5871 5870 5869 5868 5867 5866 5865 5864 5862 5861
5894 5892 5890 5888 5886 5884 5882 5881 5879 5878 5876 5875 5874 5873 5872 5872 5871 5871 5871 5871 5870 5870 5870 5870 5870 5869 5869 5869 5868 5868 5867 5866 5866 5865 5864 5863 5862 5861 5859 5858 5857 5856 5854
5893 5891 5889 5887 5885 5883 5881 5879 5877 5875 5874 5872 5871 5870 5869 5868 5867 5867 5866 5866 5866 5865 5865 5865 5864 5864 5863 5863 5862 5862 5861 5860 5860 5859 5858 5857 5855 5854 5852 5851 5850 5849 5847
5892 5890 5888 5886 5883 5881 5879 5877 5875 5873 5871 5870 5868 5867 5865 5864 5863 5862 5861 5861 5861 5860 5860 5859 5859 5858 5857 5857 5856 5855 5855 5854 5853 5852 5851 5850 5849 5847 5845 5844 5843 5841 5840
5890 5888 5886 5883 5881 5879 5876 5874 5872 5870 5868 5867 5865 5863 5862 5860 5859 5858 5857 5856 5856 5855 5855 5854 5853 5852 5851 5851 5850 5849 5848 5847 5846 5845 5844 5843 5842 5840 5838 5837 5835 5833 5832
5887 5885 5883 5880 5878 5876 5873 5871 5869 5867 5864 5863 5861 5859 5857 5856 5854 5853 5852 5851 5851 5850 5849 5848 5846 5846 5845 5844 5843 5842 5841 5840 5839 5838 5837 5835 5834 5832 5830 5829 5827 5826 5824
5884 5882 5879 5877 5874 5872 5870 5868 5865 5863 5860 5858 5857 5855 5853 5851 5849 5848 5847 5846 5845 5844 5843 5842 5840 5840 5839 5837 5836 5835 5834 5833 5832 5830 5829 5828 5826 5824 5822 5821 5819 5817 5816
5880 5878 5875 5873 5871 5868 5866 5864 5861 5859 5857 5854 5852 5850 5848 5846 5845 5843 5842 5841 5840 5838 5837 5836 5835 5833 5832 5830 5829 5828 5827 5825 5824 5822 5821 5820 5818 5816 5814 5812 5810 5808 5807
5875 5873 5871 5869 5866 5863 5861 5859 5857 5855 5853 5850 5848 5845 5843 5841 5840 5838 5836 5835 5834 5832 5831 5830 5828 5827 5825 5824 5822 5821 5819 5817 5816 5814 5812 5811 5809 5807 5805 5803 5801 5799 5798
5869 5867 5865 5863 5861 5858 5856 5854 5852 5850 5847 5845 5843 5841 5839 5837 5835 5833 5831 5829 5827 5826 5824 5823 5821 5819 5818 5816 5814 5813 5811 5809 5808 5806 5804 5802 5800 5798 5796 5794 5792 5790 5788
5862 5860 5858 5856 5854 5852 5850 5847 5845 5843 5841 5839 5837 5835 5833 5831 5829 5827 5825 5823 5821 5819 5817 5815 5814 5812 5810 5808 5806 5805 5803 5801 5799 5797 5795 5793 5791 5789 5787 5784 5782 5780 5779
5854 5852 5850 5848 5847 5844 5842 5840 5837 5836 5834 5832 5831 5829 5827 5824 5822 5820 5818 5816 5814 5812 5810 5807 5806 5803 5802 5800 5798 5796 5794 5792 5790 5788 5786 5783 5781 5779 5777 5774 5772 5770 5768
5846 5844 5841 5839 5838 5836 5834 5832 5829 5828 5826 5825 5823 5821 5819 5817 5815 5812 5810 5808 5805 5803 5801 5799 5797 5795 5793 5791 5789 5786 5784 5782 5780 5778 5776 5773 5771 5769 5766 5764 5762 5760 5757
5836 5835 5833 5831 5828 5826 5824 5822 5821 5819 5818 5816 5815 5813 5811 5809 5806 5804 5802 5799 5797 5794 5792 5790 5788 5785 5783 5781 5779 5776 5774 5772 5770 5767 5765 5763 5761 5758 5756 5753 5751 5749 5746
5826 5825 5823 5821 5819 5817 5815 5813 5812 5811 5809 5808 5806 5804 5802 5800 5797 5795 5792 5790 5788 5785 5783 5780 5778 5776 5773 5771 5768 5766 5763 5761 5759 5757 5754 5752 5749 5747 5745 5742 5740 5738 5735
5816 5815 5813 5811 5809 5807 5806 5804 5803 5801 5800 5798 5796 5794 5792 5790 5787 5785 5783 5780 5778 5775 5773 5770 5768 5765 5763 5760 5758 5755 5753 5750 5748 5745 5743 5740 5738 5736 5734 5731 5729 5727 5724
5805 5804 5803 5801 5799 5797 5796 5795 5793 5792 5790 5788 5786 5784 5782 5779 5777 5775 5772 5770 5767 5765 5763 5760 5757 5755 5752 5749 5747 5744 5742 5739 5737 5734 5732 5730 5727 5725 5723 5720 5718 5715 5713
5795 5794 5793 5791 5789 5788 5786 5784 5783 5781 5780 5778 5776 5773 5771 5769 5766 5764 5762 5759 5757 5754 5752 5749 5746 5744 5741 5739 5736 5733 5731 5728 5726 5723 5721 5718 5716 5714 5711 5709 5706 5704 5702
5785 5784 5782 5781 5779 5778 5776 5774 5773 5771 5769 5767 5765 5762 5760 5758 5755 5753 5750 5748 5746 5743 5741 5738 5736 5733 5730 5728 5725 5723 5720 5718 5715 5712 5710 5707 5704 5702 5700 5697 5695 5693 5691
5775 5773 5772 5770 5769 5767 5765 5764 5762 5760 5758 5756 5754 5751 5749 5747 5744 5742 5739 5737 5735 5732 5730 5727 5725 5722 5719 5717 5714 5712 5709 5706 5704 5701 5698 5696 5693 5691 5688 5686 5684 5682 5680
5764 5762 5761 5759 5758 5756 5755 5753 5751 5749 5747 5745 5743 5741 5738 5736 5734 5731 5729 5726 5724 5721 5718 5716 5713 5711 5708 5705 5703 5700 5698 5695 5692 5690 5687 5684 5682 5679 5677 5674 5672 5670 5668
5753 5751 5750 5748 5746 5745 5743 5742 5740 5738 5736 5734 5732 5730 5727 5725 5723 5720 5718 5715 5712 5710 5707 5704 5702 5699 5697 5694 5692 5689 5686 5684 5681 5678 5675 5673 5670 5668 5666 5663 5661 5659 5657
5742 5740 5739 5737 5735 5734 5732 5730 5728 5726 5724 5722 5720 5718 5716 5713 5711 5709 5706 5704 5701 5698 5696 5693 5690 5688 5685 5682 5680 5678 5675 5672 5670 5667 5664 5662 5659 5657 5654 5652 5650 5648 5646
5731 5729 5727 5726 5724 5722 5721 5719 5717 5715 5713 5711 5709 5706 5704 5702 5699 5697 5694 5692 5689 5687 5684 5681 5679 5676 5674 5671 5668 5666 5663 5661 5658 5656 5653 5651 5648 5646 5644 5641 5639 5637 5636
5719 5718 5716 5715 5713 5711 5709 5708 5706 5704 5702 5699 5697 5695 5692 5690 5687 5685 5683 5680 5678 5675 5672 5670 5667 5665 5662 5660 5657 5655 5652 5650 5647 5645 5642 5640 5638 5636 5633 5631 5629 5627 5626
5709 5707 5706 5704 5702 5700 5698 5696 5695 5692 5690 5688 5686 5684 5681 5679 5676 5674 5671 5668 5666 5663 5661 5658 5656 5654 5651 5649 5646 5644 5641 5639 5637 5634 5632 5630 5628 5626 5624 5621 5619 5617 5615